User: anonymous   Login
Location: Ostrava
(49.8330°N, 18.2830°E)
Time: 09:47:07
(UTC+02:00)
Language:

Iridium 7 - Orbit

View from above orbital plane
View from above orbital plane
View from above satellite
View from above satellite

Ground track
Ground track

The orbit data is extracted from the following two-line orbital elements,

1 24793U 97020B   16178.27129898  .00000189  00000-0  60342-4 0  9999
2 24793  86.3981 107.7657 0002271  84.7682 275.3773 14.34219093  2183
Epoch (UTC): 26 June 2016 06:30:40
Eccentricity: 0.0002271
inclination: 86.3981°
perigee height: 776 km
apogee height: 779 km
right ascension of ascending node: 107.7657°
argument of perigee: 84.7682°
revolutions per day: 14.34219093
mean anomaly at epoch: 275.3773°
orbit number at epoch: 218

The dashed part of the orbit path shows where the satellite is in the earth's shadow,  

DLR